星链-31886 (STARLINK-31886 )

导读 | 豆包AI

STARLINK-31886是美国太空探索技术公司(SpaceX)于2024年5月6日发射的星链系列卫星,星链项目旨在构建全球卫星互联网星座,该卫星将为全球偏远地区等提供低延迟、高速率的宽带互联网接入服务,进一步扩充星链星座规模,推动星座组网建设。

基本信息
目录编号:
59662
目录名称:
STARLINK-31886
国际标识:
2024-084J
轨道中心:
EARTH
卫星名称:
星链-31886
卫星全名:
星链-31886 (STARLINK-31886 )
卫星状态:
在轨 (已飞行678 天)
发射日期:
2024-05-06 UTC
国别 :
美国 (US)
星等 :
--
轨道信息
数据来源 国际轨道数据
星历时间: 2026-03-15T11:09:24+0800
15小时前
查看轨道信息
半长轴: 6861.172km
偏心率: 0.0000546
轨道倾角: 43.000°
近地点辐角 298.169°
升交点赤经 11.218°
平近点角 61.911°
近地点: 482.66km
远地点: 483.41km
周期: 94.266分钟
每日圈数: 15.275849
详细信息
固有亮度:
5
最大亮度:
1.5
卫星平台:
Starlink v2.0 mini
覆盖范围:
全球
运营商:
太空探索技术公司
运营商所在国:
美国
制造商(研发单位):
太空探索技术公司
制造商所在国:
美国
使用方式:
暂无
卫星简介
星链(Starlink)计划是由太空探索技术公司(SpaceX)提出的一个巨型低轨卫星互联网星座项目,计划在2019年至2024年间在太空搭建由约1.2万颗卫星组成的“星链”网络,其中1584颗将部署在地球上空550千米处的近地轨道,并从2020年开始工作。该卫星仍在工作。
2D轨道图
3D轨道图
轨道高度分析图
轨道倾角分析图
轨道综合分析图
查看轨道综合分析图